This is the latest recevied weather packets stored in our database for station/object N4RCT. If no packets are shown the sender has not sent any weather packets the latest 10 day(s).
| Time | Temp. | Humidity | Pressure | Rain* | Wind** | Luminosity | Snow |
|---|---|---|---|---|---|---|---|
| 1777772564 | 10.56° C | 79% | 1015.3 hPa | 0 mm | - | 0 W/m² | - |
| 1777772261 | 10.56° C | 79% | 1015.1 hPa | 0 mm | - | 0 W/m² | - |
| 1777771958 | 10.56° C | 78% | 1015.2 hPa | 0 mm | - | 0 W/m² | - |
| 1777771656 | 11.11° C | 75% | 1014.9 hPa | 0 mm | - | 0 W/m² | - |
| 1777771353 | 11.11° C | 76% | 1014.9 hPa | 0 mm | - | 0 W/m² | - |
| 1777771049 | 11.67° C | 75% | 1014.9 hPa | 0 mm | - | 0 W/m² | - |
| 1777770747 | 11.67° C | 74% | 1014.7 hPa | 0 mm | - | 0 W/m² | - |
| 1777770442 | 12.22° C | 72% | 1014.7 hPa | 0 mm | - | 0 W/m² | - |
| 1777770139 | 12.22° C | 72% | 1014.7 hPa | 0 mm | - | 0 W/m² | - |
| 1777769837 | 12.22° C | 69% | 1014.9 hPa | 0 mm | - | 0 W/m² | - |
| 1777769534 | 12.78° C | 68% | 1014.6 hPa | 0 mm | - | 0 W/m² | - |
| 1777769230 | 12.78° C | 67% | 1014.7 hPa | 0 mm | - | 0 W/m² | - |
| 1777768929 | 12.78° C | 66% | 1014.7 hPa | 0 mm | - | 0 W/m² | - |
| 1777768626 | 13.33° C | 63% | 1014.6 hPa | 0 mm | - | 0 W/m² | - |
| 1777768323 | 13.33° C | 60% | 1014.6 hPa | 0 mm | - | 0 W/m² | - |
| 1777768019 | 13.89° C | 60% | 1014.3 hPa | 0 mm | - | 0 W/m² | - |
| 1777767716 | 13.89° C | 55% | 1014.1 hPa | 0 mm | - | 1 W/m² | - |
| 1777767412 | 14.44° C | 56% | 1014.3 hPa | 0 mm | - | 2 W/m² | - |
| 1777767109 | 15° C | 55% | 1014.1 hPa | 0 mm | - | 5 W/m² | - |
| 1777766807 | 15° C | 55% | 1014.2 hPa | 0 mm | - | 6 W/m² | - |
| 1777766504 | 15.56° C | 52% | 1014 hPa | 0 mm | - | 9 W/m² | - |
| 1777766200 | 15.56° C | 48% | 1013.7 hPa | 0 mm | - | 10 W/m² | - |
| 1777765899 | 16.11° C | 47% | 1013.8 hPa | 0 mm | - | 13 W/m² | - |
| 1777765594 | 16.11° C | 46% | 1013.7 hPa | 0 mm | - | 15 W/m² | - |
| 1777765292 | 16.67° C | 48% | 1013.9 hPa | 0 mm | - | 16 W/m² | - |
* Rain latest hour (hover to see other rain measurements)
** Current wind speed in m/s (hover to see current wind gust speed)